Weather History for Davenport, IA

Change the Weather History Date:

Monday, March 11, 2013

  Actual Average Record
Temperature  
Mean Temperature 32 °F 36 °F  
Max Temperature 34 °F 46 °F 76 °F (1972)
Min Temperature 29 °F 26 °F 6 °F (1979)
Degree Days  
Heating Degree Days 33 29  
Month to date heating degree days 410 345  
Since 1 July heating degree days 5196 5370  
Cooling Degree Days 0 0  
Month to date cooling degree days 0 0  
Year to date cooling degree days 0 0  
Moisture  
Dew Point 30 °F    
Average Humidity 88    
Maximum Humidity 100    
Minimum Humidity 75    
Precipitation  
Precipitation 0.07 in 0.07 in 1.04 in (1957)
Month to date precipitation 1.73 0.80  
Year to date precipitation 5.43 3.33  
Snow  
Snow T in - - ()
Month to date snowfall 5.1  
Since 1 July snowfall 23.7  
Snow Depth 0.00 in    
Sea Level Pressure  
Sea Level Pressure 29.69 in    
Wind  
Wind Speed 14 mph (WNW)    
Max Wind Speed 26 mph    
Max Gust Speed 31 mph    
Visibility 3 miles    
Events Fog , Rain , Snow    
T = Trace of Precipitation, MM = Missing Value Source: NWS Daily Summary

Daily Weather History Graph

Daily Weather History Graph

Search for Another Location

Airport:

Trip Planner

Search our weather history database for the weather conditions in past years. The results will help you decide how hot, cold, wet, or windy it might be!

Date:

Astronomy

Mar. 11, 2013 Rise Set
Actual Time 7:20 AM CDT 7:04 PM CDT
Civil Twilight 6:52 AM CDT 7:32 PM CDT
Nautical Twilight 6:20 AM CDT 8:04 PM CDT
Astronomical Twilight 5:48 AM CDT 8:37 PM CDT
Moon 6:53 AM CDT (3/11) 7:17 PM CDT (3/11)
Length of Visible Light 12h 39m
Length of Day
11h 44m
Waning Crescent, 0% of the Moon is Illuminated
Mar 11
Waning Crescent
Mar 11
New
Mar 19
First Quarter
Mar 27
Full
Apr 2
Last Quarter

Hourly Weather History & Observations

Time (CDT) Temp. Windchill Dew Point Humidity Pressure Visibility Wind Dir Wind Speed Gust Speed Precip Events Conditions
12:52 AM 34.0 °F 31.0 °F 34.0 °F 100% 29.65 in 0.2 mi WSW 3.5 mph - N/A Fog Fog
1:52 AM 34.0 °F 29.8 °F 33.1 °F 96% 29.65 in 0.2 mi NNW 4.6 mph - N/A Fog Fog
2:52 AM 34.0 °F 29.8 °F 34.0 °F 100% 29.64 in 0.2 mi NNW 4.6 mph - N/A Fog Fog
3:52 AM 34.0 °F 29.8 °F 33.1 °F 96% 29.62 in 0.2 mi WSW 4.6 mph - N/A Fog Fog
5:50 AM 33.8 °F 28.6 °F 32.0 °F 93% 29.62 in 0.5 mi West 5.8 mph - 0.01 in Fog , Rain Light Rain
5:52 AM 33.1 °F 27.7 °F 32.0 °F 96% 29.63 in 0.5 mi West 5.8 mph - 0.01 in Fog , Rain Light Rain
6:31 AM 33.8 °F 28.6 °F 32.0 °F 93% 29.63 in 0.8 mi West 5.8 mph - 0.01 in Rain Light Rain
6:47 AM 33.8 °F 29.6 °F 32.0 °F 93% 29.63 in 0.5 mi West 4.6 mph - 0.02 in Fog , Rain Light Rain
6:52 AM 33.1 °F 27.7 °F 32.0 °F 96% 29.65 in 0.5 mi WNW 5.8 mph - 0.02 in Fog , Snow Light Snow
7:08 AM 33.8 °F 28.6 °F 32.0 °F 93% 29.63 in 1.0 mi WNW 5.8 mph - 0.01 in Rain Light Freezing Rain
7:16 AM 33.8 °F 28.6 °F 32.0 °F 93% 29.63 in 0.8 mi WNW 5.8 mph - 0.01 in Rain Light Freezing Rain
7:52 AM 33.1 °F 26.9 °F 32.0 °F 96% 29.65 in 0.5 mi WNW 6.9 mph - 0.02 in Fog , Rain Light Freezing Rain
8:05 AM 33.8 °F 27.7 °F 32.0 °F 93% 29.62 in 1.2 mi NW 6.9 mph - 0.00 in Rain Light Freezing Rain
8:15 AM 33.8 °F 27.7 °F 32.0 °F 93% 29.62 in 1.2 mi NW 6.9 mph - 0.00 in   Overcast
8:52 AM 33.1 °F 26.1 °F 32.0 °F 96% 29.65 in 1.2 mi NW 8.1 mph - 0.00 in   Overcast
9:10 AM 33.8 °F 26.4 °F 32.0 °F 93% 29.62 in 2.5 mi NNW 9.2 mph - N/A   Overcast
9:31 AM 33.8 °F 26.4 °F 32.0 °F 93% 29.62 in 3.0 mi NNW 9.2 mph - N/A   Overcast
9:52 AM 33.1 °F 26.1 °F 33.1 °F 100% 29.65 in 4.0 mi NW 8.1 mph - N/A   Overcast
10:52 AM 33.1 °F 26.1 °F 32.0 °F 96% 29.67 in 7.0 mi WNW 8.1 mph - N/A   Overcast
11:17 AM 33.8 °F 25.3 °F 32.0 °F 93% 29.64 in 2.5 mi WNW 11.5 mph - N/A   Overcast
11:41 AM 33.8 °F 25.3 °F 32.0 °F 93% 29.64 in 1.8 mi WNW 11.5 mph - 0.00 in   Overcast
11:52 AM 33.1 °F 23.9 °F 32.0 °F 96% 29.66 in 1.2 mi WNW 12.7 mph - 0.00 in Snow Light Snow
12:27 PM 32.0 °F 21.2 °F 30.2 °F 93% 29.65 in 2.0 mi WNW 16.1 mph - 0.00 in   Overcast
12:37 PM 33.8 °F 24.3 °F 30.2 °F 87% 29.65 in 3.0 mi WNW 13.8 mph - 0.00 in   Overcast
12:44 PM 33.8 °F 23.9 °F 30.2 °F 87% 29.66 in 3.0 mi WNW 15.0 mph - 0.00 in   Overcast
12:52 PM 33.1 °F 22.6 °F 30.9 °F 92% 29.68 in 4.0 mi WNW 16.1 mph - 0.00 in   Overcast
1:52 PM 33.1 °F 23.4 °F 30.0 °F 89% 29.67 in 2.5 mi WNW 13.8 mph 23.0 mph 0.00 in Snow Light Snow
2:08 PM 33.8 °F 22.2 °F 30.2 °F 87% 29.65 in 2.5 mi WNW 20.7 mph 25.3 mph 0.00 in Snow Light Snow
2:52 PM 33.1 °F 20.9 °F 30.0 °F 89% 29.68 in 2.0 mi WNW 21.9 mph 27.6 mph 0.00 in Snow Light Snow
3:20 PM 32.0 °F 19.5 °F 28.4 °F 87% 29.67 in 1.5 mi WNW 21.9 mph 28.8 mph 0.00 in Snow Light Snow
3:29 PM 32.0 °F 18.9 °F 28.4 °F 87% 29.68 in 1.8 mi WNW 24.2 mph - 0.00 in Snow Light Snow
3:36 PM 32.0 °F 19.5 °F 28.4 °F 87% 29.68 in 2.5 mi WNW 21.9 mph 27.6 mph 0.00 in Snow Light Snow
3:41 PM 32.0 °F 20.1 °F 28.4 °F 87% 29.68 in 3.0 mi WNW 19.6 mph - 0.00 in Snow Light Snow
3:52 PM 32.0 °F 19.5 °F 28.0 °F 85% 29.71 in 4.0 mi WNW 21.9 mph - 0.00 in Snow Light Snow
4:52 PM 32.0 °F 19.5 °F 28.0 °F 85% 29.73 in 9.0 mi WNW 21.9 mph 28.8 mph 0.00 in   Overcast
5:52 PM 32.0 °F 20.1 °F 28.0 °F 85% 29.77 in 8.0 mi West 19.6 mph 24.2 mph N/A   Overcast
6:52 PM 30.9 °F 18.4 °F 27.0 °F 85% 29.79 in 7.0 mi WNW 20.7 mph 27.6 mph N/A   Overcast
7:37 PM 30.2 °F 17.8 °F 26.6 °F 86% 29.79 in 6.0 mi WNW 19.6 mph - N/A   Overcast
7:52 PM 30.9 °F 18.1 °F 27.0 °F 85% 29.82 in 7.0 mi WNW 21.9 mph 26.5 mph N/A   Overcast
8:23 PM 30.2 °F 18.5 °F 26.6 °F 86% 29.81 in 7.0 mi West 17.3 mph 26.5 mph N/A   Overcast
8:52 PM 30.0 °F 17.5 °F 26.1 °F 85% 29.85 in 8.0 mi West 19.6 mph 25.3 mph N/A   Overcast
9:52 PM 30.0 °F 16.9 °F 24.1 °F 79% 29.87 in 10.0 mi West 21.9 mph 29.9 mph N/A   Overcast
10:52 PM 28.9 °F 15.1 °F 21.9 °F 75% 29.90 in 10.0 mi WNW 23.0 mph 28.8 mph N/A   Overcast
11:52 PM 28.9 °F 15.8 °F 23.0 °F 78% 29.90 in 10.0 mi West 20.7 mph 26.5 mph N/A   Overcast